TVF26ZG LFLL-LEMG

Flight info

Callsign TVF26ZG
Flight time N/A
Altitude 33000
Route REPSI DCT LERGA DCT MINSO DCT NARAK DCT AGN/N0443F390 DCT MAQAB DCT TIVLI N869 ELSAP DCT ZAR DCT EXEMU DCT PISUS DCT EDIMU DCT ADUXO DCT NUSGO DCT OBIBO DCT NASOS DCT ANZAN DCT BLN
Aircraft A21N/M-SDE2E3FGHIRWXY/LB1

Departure

Time 2026-05-01 11:31
Airport Lyon Saint-Exupéry Airport (LFLL)

Arrival

Time N/A
Airport Málaga-Costa del Sol Airport (LEMG)
Time Latitude Longitude Altitude Speed Heading
2026-05-01 10:26 45.71596 5.08268 807 ft 0 kts 195°
2026-05-01 11:19 45.71599 5.08269 807 ft 3 kts 195°
2026-05-01 11:19 45.71624 5.08279 807 ft 4 kts 195°
2026-05-01 11:19 45.71645 5.08287 806 ft 4 kts 188°
2026-05-01 11:20 45.71668 5.08284 806 ft 4 kts 135°
2026-05-01 11:20 45.71676 5.08255 806 ft 4 kts 101°
2026-05-01 11:20 45.71678 5.08235 806 ft 0 kts 101°
2026-05-01 11:26 45.71676 5.08254 806 ft 4 kts 94°
2026-05-01 11:26 45.71682 5.08392 805 ft 10 kts 85°
2026-05-01 11:26 45.71725 5.08486 808 ft 14 kts 14°
2026-05-01 11:27 45.71830 5.08476 807 ft 16 kts 355°
2026-05-01 11:27 45.71951 5.08468 807 ft 19 kts 353°
2026-05-01 11:27 45.72087 5.08445 808 ft 21 kts 356°
2026-05-01 11:27 45.72237 5.08428 805 ft 22 kts 355°
2026-05-01 11:28 45.72395 5.08407 803 ft 24 kts 355°
2026-05-01 11:28 45.72566 5.08387 801 ft 25 kts 355°
2026-05-01 11:28 45.72746 5.08365 796 ft 27 kts 355°
2026-05-01 11:29 45.73139 5.08316 791 ft 30 kts 354°
2026-05-01 11:29 45.73349 5.08291 787 ft 31 kts 356°
2026-05-01 11:29 45.73681 5.08265 783 ft 16 kts 22°
2026-05-01 11:30 45.73729 5.08397 783 ft 17 kts 101°
2026-05-01 11:30 45.73701 5.08551 782 ft 14 kts 106°
2026-05-01 11:30 45.73671 5.08686 783 ft 13 kts 121°
2026-05-01 11:30 45.73576 5.08730 786 ft 17 kts 175°
2026-05-01 11:31 45.73359 5.08755 791 ft 63 kts 175°
2026-05-01 11:31 45.72703 5.08836 796 ft 126 kts 175°
2026-05-01 11:31 45.71684 5.08962 933 ft 156 kts 176°
2026-05-01 11:31 45.70670 5.09084 1690 ft 138 kts 175°
2026-05-01 11:32 45.69643 5.09206 2033 ft 168 kts 174°